Location: Chequamegon National Forest
(46.1070°N, 90.8420°W)
Time: 00:04:35
(UTC-05:00)

Amateur Radio Satellites - All Passes

Search period start: 22 May 2017 23:34
Search period end: 23 May 2017 23:34
Location: Chequamegon National Forest, 46.1070°N, 90.8420°W

Satellite Date Start Highest point End Downlink Frequencies (MHz)
Time Altitude Azimuth
SPROUT 22 May 23:37:19 23:40:44 24° 65° (ENE) 23:44:10 437.525
FO-29 22 May 23:37:46 23:43:52 79° 287° (WNW) 23:50:49 435.910
50 SAT 22 May 23:40:24 23:41:31 11° 62° (ENE) 23:42:38 437.505
POLYITAN 1 22 May 23:41:26 23:43:01 12° 89° (E) 23:44:37 437.675
NANOSAT C BR1 22 May 23:41:48 23:42:38 10° 88° (E) 23:43:27 145.865
SO-50 22 May 23:48:04 23:52:28 48° 120° (ESE) 23:56:51 436.795
QB50P2 22 May 23:48:59 23:51:35 16° 91° (E) 23:54:10 145.880/145.840
DUCHIFAT 1 22 May 23:53:53 23:55:53 13° 89° (E) 23:57:53 145.980
DX 1 23 May 00:00:21 00:03:16 18° 62° (ENE) 00:06:10 434.975-435.025
UKube-1 23 May 00:02:36 00:04:39 13° 59° (ENE) 00:06:44 .
TIGRISAT 23 May 00:10:35 00:14:36 31° 292° (WNW) 00:18:40 435.000
ISS 23 May 00:22:40 00:25:51 43° 343° (NNW) 00:29:01 437.550
EO-79 23 May 00:26:44 00:30:38 35° 97° (E) 00:34:33 145.935-145.965
Tancredo 1 23 May 00:33:12 00:36:01 32° 349° (N) 00:38:51 437.200
PRISM 23 May 00:33:49 00:35:44 13° 300° (WNW) 00:37:37 437.425
UNISAT 6 23 May 00:41:56 00:44:45 16° 299° (WNW) 00:47:36 437.425
VELOX 1 23 May 00:45:05 00:49:29 68° 257° (WSW) 00:53:55 145.980
AIST 2D 23 May 00:59:33 01:02:57 41° 288° (WNW) 01:06:19 435.315
ESTCUBE 1 23 May 01:09:57 01:12:00 13° 272° (W) 01:14:04 437.505/2401.250
50 SAT 23 May 01:10:30 01:13:56 57° 259° (W) 01:17:22 437.505
YUBILEINY 23 May 01:10:46 01:18:29 37° 84° (E) 01:26:15 435.215
RS-15 23 May 01:11:21 01:17:46 16° 94° (E) 01:24:13 29.354- 29.394
SPROUT 23 May 01:12:36 01:16:28 35° 263° (W) 01:20:23 437.525
NANOSAT C BR1 23 May 01:14:38 01:18:52 80° 286° (WNW) 01:23:07 145.865
POLYITAN 1 23 May 01:15:02 01:19:18 72° 286° (WNW) 01:23:33 437.675
QB50P2 23 May 01:23:32 01:27:42 54° 288° (WNW) 01:31:51 145.880/145.840
FO-29 23 May 01:24:41 01:28:13 16° 304° (NW) 01:31:59 435.910
DUCHIFAT 1 23 May 01:27:47 01:31:58 64° 287° (WNW) 01:36:10 145.980
Gurwin Techsat 1B 23 May 01:28:53 01:29:47 10° 85° (E) 01:30:40 435.225
SO-50 23 May 01:29:10 01:33:08 28° 319° (NW) 01:37:05 436.795
DX 1 23 May 01:34:47 01:39:03 54° 259° (W) 01:43:21 434.975-435.025
UKube-1 23 May 01:35:48 01:40:06 76° 257° (WSW) 01:44:27 .
ISS 23 May 01:59:53 02:02:50 30° 3° (N) 02:05:48 437.550
EO-79 23 May 02:02:49 02:06:15 24° 294° (WNW) 02:09:42 145.935-145.965
BUGSAT 1 23 May 02:03:11 02:07:18 82° 284° (WNW) 02:11:26 437.445
ITUPSAT 1 23 May 02:08:11 02:12:02 25° 63° (ENE) 02:15:55 437.325
Tancredo 1 23 May 02:09:31 02:12:19 30° 9° (N) 02:15:06 437.200
Oscar 19 23 May 02:22:05 02:27:09 52° 100° (E) 02:32:09 437.125/150
BEESAT 23 May 02:43:41 02:48:17 52° 70° (ENE) 02:52:56 436.000
MOZHAYETS 4 23 May 03:03:16 03:07:36 43° 70° (ENE) 03:11:59
Gurwin Techsat 1B 23 May 03:05:16 03:10:37 77° 103° (ESE) 03:15:56 435.225
YUBILEINY 23 May 03:06:29 03:14:58 54° 286° (WNW) 03:23:33 435.215
RS-15 23 May 03:15:45 03:27:37 65° 116° (ESE) 03:39:45 29.354- 29.394
ITAMSAT 1 23 May 03:15:51 03:18:49 15° 89° (E) 03:21:45 435.822/435.867
AO-7 23 May 03:25:01 03:31:24 23° 91° (E) 03:37:43 .
ISS 23 May 03:36:29 03:39:45 60° 23° (NNE) 03:42:59 437.550
CUBESAT XI-V 23 May 03:39:03 03:42:34 21° 63° (ENE) 03:46:06 437.345
ITUPSAT 1 23 May 03:45:07 03:49:38 43° 261° (W) 03:54:13 437.325
Tancredo 1 23 May 03:45:16 03:48:21 87° 210° (SSW) 03:51:25 437.200
Oscar 19 23 May 04:02:04 04:06:08 24° 298° (WNW) 04:10:11 437.125/150
PCSat 23 May 04:02:12 04:06:40 25° 40° (NE) 04:11:07 145.827
BEESAT 23 May 04:22:57 04:26:22 20° 268° (W) 04:29:50 436.000
KKS-1 23 May 04:26:35 04:30:53 50° 71° (ENE) 04:35:11 437.445
O/OREOS (USA 219) 23 May 04:41:19 04:45:23 32° 105° (ESE) 04:49:28 437.305
MOZHAYETS 4 23 May 04:41:22 04:44:57 22° 267° (W) 04:48:34
Gurwin Techsat 1B 23 May 04:46:29 04:49:57 18° 302° (WNW) 04:53:25 435.225
ITAMSAT 1 23 May 04:53:39 04:58:52 77° 287° (WNW) 05:04:05 435.822/435.867
STARS 23 May 05:09:06 05:13:24 61° 72° (ENE) 05:17:43 437.465
YUBILEINY 23 May 05:10:44 05:14:15 13° 312° (NW) 05:17:48 435.215
ISS 23 May 05:13:18 05:16:03 25° 221° (SW) 05:18:47 437.550
CUBESAT XI-V 23 May 05:15:01 05:19:36 50° 261° (W) 05:24:13 437.345
AO-7 23 May 05:16:41 05:25:04 84° 292° (WNW) 05:33:27 .
Tancredo 1 23 May 05:22:07 05:23:42 13° 225° (SW) 05:25:16 437.200
AO-85 23 May 05:27:08 05:30:31 24° 116° (ESE) 05:33:46 145.980
RS-15 23 May 05:28:52 05:40:44 52° 323° (NW) 05:52:45 29.354- 29.394
PCSat 23 May 05:45:09 05:50:35 70° 241° (WSW) 05:55:57 145.827
BEESAT 3 23 May 05:47:05 05:48:29 12° 109° (ESE) 05:49:54 437.485
KKS-1 23 May 06:04:43 06:07:43 18° 268° (W) 06:10:45 437.445
CUTE-I 23 May 06:20:28 06:24:12 19° 91° (E) 06:27:57 437.470
XW-2D 23 May 06:20:30 06:23:10 18° 92° (E) 06:25:48 145.860 - 145.880
O/OREOS (USA 219) 23 May 06:20:38 06:24:45 32° 304° (NW) 06:28:54 437.305
XW-2B 23 May 06:28:06 06:31:03 20° 93° (E) 06:33:58 145.730 - 145.750
ITAMSAT 1 23 May 06:35:12 06:37:29 13° 306° (NW) 06:39:46 435.822/435.867
SO-50 23 May 06:37:07 06:40:15 18° 33° (NNE) 06:43:23 436.795
STRAND 1 23 May 06:37:39 06:42:02 30° 64° (ENE) 06:46:27 437.568
XW-2C 23 May 06:41:13 06:44:37 29° 96° (E) 06:47:59 145.795 - 145.815
XW-2F 23 May 06:43:19 06:46:43 29° 96° (E) 06:50:05 145.980 - 146.000
STARS 23 May 06:47:46 06:50:09 14° 270° (W) 06:52:32 437.465
BEESAT 2 23 May 06:53:13 06:56:17 21° 114° (ESE) 06:59:23 435.950
NUDT-PHONESAT 23 May 06:54:53 06:58:18 31° 96° (E) 07:01:42 437.300
KAITUO 1B 23 May 06:57:41 07:01:13 34° 97° (E) 07:04:42 145.475/437.950
DOVE 4 23 May 07:04:03 07:08:13 89° 279° (W) 07:12:25 437.250
AO-85 23 May 07:06:52 07:10:44 39° 313° (NW) 07:14:29 145.980
M-CUBED/EXP-1 PRIME 23 May 07:07:54 07:10:59 20° 60° (ENE) 07:13:55 437.505
AO-7 23 May 07:10:34 07:16:45 24° 313° (NW) 07:22:56 .
LilacSat-2 23 May 07:14:25 07:18:20 75° 102° (ESE) 07:22:12 437.200
HO-68 23 May 07:16:28 07:21:34 20° 89° (E) 07:26:38 435.675
BEESAT 3 23 May 07:21:30 07:25:28 78° 308° (NW) 07:29:30 437.485
CUTE 1.7 + AOD 2 23 May 07:25:37 07:28:03 15° 89° (E) 07:30:28 437.475
PCSat 23 May 07:32:32 07:32:57 10° 259° (W) 07:33:22 145.827
RS-15 23 May 07:46:15 07:56:58 32° 355° (N) 08:07:33 29.354- 29.394
XW-2D 23 May 07:53:54 07:57:31 39° 289° (WNW) 08:01:06 145.860 - 145.880
CUTE-I 23 May 07:59:26 08:04:42 64° 289° (WNW) 08:09:59 437.470
AAUSAT CUBESAT 2 23 May 08:00:43 08:00:59 10° 87° (E) 08:01:16 437.432
XW-2B 23 May 08:01:49 08:05:19 33° 290° (WNW) 08:08:48 145.730 - 145.750
XW-2C 23 May 08:15:33 08:18:42 24° 293° (WNW) 08:21:50 145.795 - 145.815
STRAND 1 23 May 08:16:21 08:21:06 39° 263° (W) 08:25:52 437.568
SO-50 23 May 08:16:50 08:21:22 87° 51° (NE) 08:25:54 436.795
XW-2F 23 May 08:17:37 08:20:45 24° 293° (WNW) 08:23:51 145.980 - 146.000
SEEDS 23 May 08:21:26 08:25:22 36° 97° (E) 08:29:15 437.485
XW-2A 23 May 08:27:14 08:30:38 58° 101° (E) 08:34:02 145.665 - 145.685
NUDT-PHONESAT 23 May 08:29:08 08:32:02 21° 294° (WNW) 08:34:56 437.300
BEESAT 2 23 May 08:29:58 08:33:47 43° 312° (NW) 08:37:41 435.950
KAITUO 1B 23 May 08:32:11 08:35:01 20° 294° (WNW) 08:37:49 145.475/437.950
M-CUBED/EXP-1 PRIME 23 May 08:41:00 08:45:11 47° 254° (WSW) 08:49:06 437.505
AO-73 23 May 08:50:49 08:54:09 20° 92° (E) 08:57:30 145.935
LilacSat-2 23 May 08:50:51 08:52:02 11° 300° (WNW) 08:53:12 437.200
CUBEBUG 2 23 May 08:56:52 09:01:22 66° 102° (ESE) 09:05:59 437.445
CUTE 1.7 + AOD 2 23 May 09:00:03 09:04:16 57° 287° (WNW) 09:08:26 437.475
BEESAT 3 23 May 09:01:27 09:03:44 14° 327° (NNW) 09:06:00 437.485
ZACube-1 23 May 09:02:00 09:05:54 28° 95° (E) 09:09:50 437.345
HO-68 23 May 09:02:52 09:10:07 84° 289° (WNW) 09:17:20 435.675
UWE-3 23 May 09:15:31 09:20:02 64° 101° (E) 09:24:37 435.000/436.395/437.385
AAUSAT CUBESAT 2 23 May 09:32:50 09:37:00 79° 286° (WNW) 09:41:07 437.432
TIGRISAT 23 May 09:35:05 09:38:55 34° 68° (ENE) 09:42:50 435.000
NO-84 23 May 09:36:42 09:39:57 21° 129° (SE) 09:43:07 435.350 FM
CUTE-I 23 May 09:42:20 09:43:44 11° 308° (NW) 09:45:09 437.470
PRISM 23 May 09:48:04 09:52:12 68° 73° (ENE) 09:56:19 437.425
FO-29 23 May 09:53:37 09:58:42 58° 70° (ENE) 10:03:53 435.910
EO-88 23 May 09:54:48 09:56:31 13° 90° (E) 09:58:14 145.990 - 145.960
SEEDS 23 May 09:57:30 10:00:52 23° 294° (WNW) 10:04:12 437.485
SO-50 23 May 09:59:17 10:01:09 12° 251° (WSW) 10:03:01 436.795
XW-2A 23 May 10:01:59 10:02:55 11° 298° (WNW) 10:03:50 145.665 - 145.685
RS-15 23 May 10:02:04 10:13:41 43° 29° (NNE) 10:24:51 29.354- 29.394
Oscar 11 23 May 10:04:19 10:08:42 86° 103° (ESE) 10:13:04 .
UNISAT 6 23 May 10:05:09 10:09:24 75° 75° (ENE) 10:13:45 437.425
BEESAT 2 23 May 10:11:52 10:12:36 10° 334° (NNW) 10:13:19 435.950
AO-73 23 May 10:26:16 10:30:36 47° 289° (WNW) 10:34:58 145.935
DELFI C3 23 May 10:26:51 10:30:38 42° 98° (E) 10:34:22 145.870
CUBEBUG 2 23 May 10:34:47 10:37:31 16° 298° (WNW) 10:40:17 437.445
NANOSAT C BR1 23 May 10:36:09 10:37:46 12° 59° (ENE) 10:39:23 145.865
POLYITAN 1 23 May 10:36:31 10:38:33 13° 60° (ENE) 10:40:36 437.675
ZACube-1 23 May 10:38:08 10:42:11 34° 292° (WNW) 10:46:17 437.345
QB50P2 23 May 10:44:09 10:46:52 17° 62° (ENE) 10:49:37 145.880/145.840
DUCHIFAT 1 23 May 10:48:16 10:50:31 14° 61° (ENE) 10:52:47 145.980
HO-68 23 May 10:51:54 10:56:52 21° 309° (NW) 11:01:49 435.675
UWE-3 23 May 10:53:10 10:56:01 17° 298° (WNW) 10:58:53 435.000/436.395/437.385
TIGRISAT 23 May 11:12:12 11:15:41 24° 266° (W) 11:19:14 435.000
NO-84 23 May 11:12:53 11:17:14 79° 327° (NNW) 11:21:21 435.350 FM
YUBILEINY 23 May 11:17:13 11:23:44 22° 58° (ENE) 11:30:12 435.215
EO-79 23 May 11:21:23 11:25:11 35° 69° (ENE) 11:29:02 145.935-145.965
ESTCUBE 1 23 May 11:21:48 11:23:53 13° 88° (E) 11:25:57 437.505/2401.250
BUGSAT 1 23 May 11:23:33 11:24:15 10° 58° (ENE) 11:24:56 437.445
PRISM 23 May 11:26:20 11:27:55 12° 271° (W) 11:29:30 437.425
EO-88 23 May 11:26:54 11:30:30 49° 287° (WNW) 11:34:03 145.990 - 145.960
AIST 2D 23 May 11:35:42 11:39:12 82° 261° (W) 11:42:46 435.315
FO-29 23 May 11:40:45 11:44:19 19° 270° (W) 11:47:57 435.910
Oscar 11 23 May 11:42:32 11:44:10 12° 301° (WNW) 11:45:48 .
UNISAT 6 23 May 11:45:22 11:46:41 11° 273° (W) 11:48:00 437.425
DELFI C3 23 May 12:02:25 12:05:06 18° 296° (WNW) 12:07:47 145.870
Oscar 19 23 May 12:04:49 12:07:51 16° 57° (ENE) 12:10:53 437.125/150
NANOSAT C BR1 23 May 12:08:42 12:12:52 79° 258° (WSW) 12:17:04 145.865
POLYITAN 1 23 May 12:09:37 12:13:48 70° 259° (WSW) 12:18:00 437.675
RS-15 23 May 12:15:18 12:27:37 83° 237° (WSW) 12:39:17 29.354- 29.394
AO-85 23 May 12:16:56 12:17:15 10° 27° (NNE) 12:17:36 145.980
QB50P2 23 May 12:18:11 12:22:17 52° 260° (W) 12:26:25 145.880/145.840
DUCHIFAT 1 23 May 12:21:34 12:25:42 64° 259° (W) 12:29:51 145.980
LO-87 23 May 12:22:33 12:26:06 79° 284° (WNW) 12:29:39 145.935 - 145.965
VELOX 1 23 May 12:33:19 12:36:23 18° 92° (E) 12:39:26 145.980
AO-7 23 May 12:40:31 12:43:31 12° 35° (NE) 12:46:31 .
Gurwin Techsat 1B 23 May 12:50:34 12:54:44 24° 61° (ENE) 12:58:55 435.225
NO-84 23 May 12:51:40 12:55:17 27° 344° (NNW) 12:58:44 435.350 FM
BUGSAT 1 23 May 12:54:57 12:58:57 86° 256° (WSW) 13:03:00 437.445
SPROUT 23 May 12:55:22 12:59:11 31° 96° (E) 13:02:59 437.525
ESTCUBE 1 23 May 12:56:41 13:01:13 72° 285° (WNW) 13:05:41 437.505/2401.250
EO-79 23 May 12:57:44 13:01:03 23° 266° (W) 13:04:23 145.935-145.965
O/OREOS (USA 219) 23 May 13:10:15 13:12:46 14° 46° (NE) 13:15:17 437.305
YUBILEINY 23 May 13:13:02 13:21:56 87° 82° (E) 13:30:48 435.215
DX 1 23 May 13:20:53 13:24:10 21° 93° (E) 13:27:26 434.975-435.025
UKube-1 23 May 13:21:32 13:23:57 15° 91° (E) 13:26:21 .
Oscar 19 23 May 13:41:16 13:46:29 85° 255° (WSW) 13:51:44 437.125/150
AO-85 23 May 13:54:46 13:58:37 45° 49° (NE) 14:02:38 145.980
BEESAT 3 23 May 13:59:00 14:02:06 21° 38° (NE) 14:05:11 437.485
50 SAT 23 May 14:03:43 14:07:09 81° 285° (WNW) 14:10:32 437.505
VELOX 1 23 May 14:08:52 14:13:06 48° 289° (WNW) 14:17:17 145.980
AO-7 23 May 14:26:30 14:34:07 43° 58° (ENE) 14:41:46 .
Gurwin Techsat 1B 23 May 14:29:08 14:34:20 54° 260° (W) 14:39:34 435.225
RS-15 23 May 14:29:27 14:38:09 24° 261° (W) 14:46:37 29.354- 29.394
NO-84 23 May 14:30:36 14:33:49 23° 6° (N) 14:36:51 435.350 FM
SPROUT 23 May 14:31:23 14:35:00 27° 293° (WNW) 14:38:37 437.525
ITAMSAT 1 23 May 14:35:41 14:40:10 31° 64° (ENE) 14:44:40 435.822/435.867
BEESAT 23 May 14:43:54 14:44:53 11° 87° (E) 14:45:53 436.000
O/OREOS (USA 219) 23 May 14:48:18 14:52:52 87° 246° (WSW) 14:57:21 437.305
UKube-1 23 May 14:56:06 15:00:21 59° 288° (WNW) 15:04:35 .
DX 1 23 May 14:56:26 15:00:32 41° 290° (WNW) 15:04:35 434.975-435.025
BEESAT 2 23 May 15:07:36 15:11:19 33° 44° (NE) 15:15:00 435.950
YUBILEINY 23 May 15:11:22 15:17:33 22° 283° (WNW) 15:23:45 435.215
Oscar 19 23 May 15:24:47 15:26:35 12° 274° (W) 15:28:22 437.125/150
AO-85 23 May 15:35:42 15:38:46 21° 245° (WSW) 15:41:57 145.980
BEESAT 3 23 May 15:36:03 15:40:02 58° 238° (WSW) 15:43:57 437.485
ITUPSAT 1 23 May 15:42:41 15:47:14 39° 98° (E) 15:51:43 437.325
NO-84 23 May 16:08:24 16:12:07 47° 28° (NNE) 16:15:31 435.350 FM
ITAMSAT 1 23 May 16:14:42 16:19:31 39° 262° (W) 16:24:21 435.822/435.867
BEESAT 23 May 16:18:33 16:23:22 87° 105° (ESE) 16:28:10 436.000
AO-7 23 May 16:18:44 16:26:44 52° 258° (WSW) 16:34:49 .
MOZHAYETS 4 23 May 16:32:18 16:36:58 72° 102° (ESE) 16:41:36
DOVE 4 23 May 16:36:20 16:38:55 15° 62° (ENE) 16:41:27 437.250
BEESAT 2 23 May 16:45:27 16:49:03 31° 243° (WSW) 16:52:37 435.950
XW-2D 23 May 17:05:04 17:06:58 13° 62° (ENE) 17:08:52 145.860 - 145.880
CUBESAT XI-V 23 May 17:09:00 17:13:14 33° 96° (E) 17:17:25 437.345
XW-2B 23 May 17:12:27 17:14:44 15° 63° (ENE) 17:17:02 145.730 - 145.750
ITUPSAT 1 23 May 17:20:50 17:24:53 27° 296° (WNW) 17:28:55 437.325
XW-2C 23 May 17:25:12 17:28:06 21° 66° (ENE) 17:31:02 145.795 - 145.815
XW-2F 23 May 17:26:55 17:29:48 21° 66° (ENE) 17:32:43 145.980 - 146.000
NUDT-PHONESAT 23 May 17:36:53 17:39:45 21° 67° (ENE) 17:42:39 437.300
KAITUO 1B 23 May 17:40:16 17:43:19 24° 67° (ENE) 17:46:25 145.475/437.950
CUTE-I 23 May 17:44:22 17:49:17 40° 67° (ENE) 17:54:12 437.470
NO-84 23 May 17:46:22 17:49:30 27° 228° (SW) 17:52:22 435.350 FM
HO-68 23 May 17:48:36 17:53:49 22° 52° (NE) 17:59:04 435.675
KKS-1 23 May 17:51:05 17:55:31 72° 103° (ESE) 17:59:56 437.445
BEESAT 23 May 17:58:04 18:00:27 14° 303° (WNW) 18:02:51 436.000
LilacSat-2 23 May 17:58:21 18:02:04 50° 72° (ENE) 18:05:50 437.200
MOZHAYETS 4 23 May 18:10:51 18:13:33 16° 300° (WNW) 18:16:16
DOVE 4 23 May 18:11:30 18:16:11 69° 259° (WSW) 18:20:37 437.250
CUTE 1.7 + AOD 2 23 May 18:20:52 18:23:26 16° 62° (ENE) 18:26:01 437.475
STARS 23 May 18:31:50 18:36:15 84° 104° (ESE) 18:40:38 437.465
XW-2D 23 May 18:36:56 18:40:42 57° 261° (W) 18:44:29 145.860 - 145.880
XW-2B 23 May 18:44:53 18:48:33 47° 261° (W) 18:52:17 145.730 - 145.750
CUBESAT XI-V 23 May 18:46:29 18:50:32 30° 294° (WNW) 18:54:33 437.345
AAUSAT CUBESAT 2 23 May 18:53:06 18:54:10 11° 59° (ENE) 18:55:13 437.432
XW-2C 23 May 18:58:40 19:02:07 32° 264° (W) 19:05:36 145.795 - 145.815
XW-2F 23 May 19:00:19 19:03:45 32° 264° (W) 19:07:14 145.980 - 146.000
XW-2A 23 May 19:01:03 19:03:57 28° 69° (ENE) 19:06:53 145.665 - 145.685
NUDT-PHONESAT 23 May 19:10:12 19:13:30 30° 264° (W) 19:16:51 437.300
KAITUO 1B 23 May 19:13:59 19:17:15 27° 265° (W) 19:20:32 145.475/437.950
SEEDS 23 May 19:15:13 19:19:04 34° 69° (ENE) 19:22:57 437.485
CUTE-I 23 May 19:24:45 19:29:24 31° 265° (W) 19:34:05 437.470
Oscar 11 23 May 19:28:44 19:29:58 11° 58° (ENE) 19:31:12 .
KKS-1 23 May 19:29:07 19:31:32 15° 301° (WNW) 19:33:56 437.445
HO-68 23 May 19:33:29 19:40:40 89° 246° (WSW) 19:47:56 435.675
LilacSat-2 23 May 19:34:40 19:36:39 14° 270° (W) 19:38:39 437.200
AO-73 23 May 19:49:00 19:52:05 20° 64° (ENE) 19:55:15 145.935
CUTE 1.7 + AOD 2 23 May 19:54:34 19:58:48 60° 259° (W) 20:03:04 437.475
CUBEBUG 2 23 May 19:57:22 20:01:30 71° 74° (ENE) 20:05:43 437.445
ZACube-1 23 May 20:00:19 20:03:55 28° 67° (ENE) 20:07:35 437.345
STARS 23 May 20:10:07 20:11:57 12° 302° (WNW) 20:13:48 437.465
UWE-3 23 May 20:14:50 20:18:57 66° 74° (ENE) 20:23:12 435.000/436.395/437.385
STRAND 1 23 May 20:23:39 20:28:44 59° 101° (E) 20:33:49 437.568
AAUSAT CUBESAT 2 23 May 20:24:45 20:28:56 89° 238° (WSW) 20:33:10 437.432
PCSat 23 May 20:28:52 20:34:12 66° 119° (ESE) 20:39:37 145.827
XW-2A 23 May 20:34:21 20:36:44 18° 267° (W) 20:39:09 145.665 - 145.685
SEEDS 23 May 20:51:22 20:54:49 24° 266° (W) 20:58:19 437.485
Oscar 11 23 May 21:01:03 21:05:23 88° 76° (ENE) 21:09:46 .
DELFI C3 23 May 21:14:25 21:18:03 34° 70° (ENE) 21:21:42 145.870
AO-73 23 May 21:24:02 21:28:02 43° 262° (W) 21:32:09 145.935
HO-68 23 May 21:24:46 21:29:23 18° 272° (W) 21:34:01 435.675
ZACube-1 23 May 21:36:27 21:40:08 29° 265° (W) 21:43:55 437.345
CUBEBUG 2 23 May 21:37:23 21:38:39 11° 272° (W) 21:39:58 437.445
M-CUBED/EXP-1 PRIME 23 May 21:51:33 21:54:56 81° 108° (ESE) 21:58:11 437.505
UWE-3 23 May 21:54:12 21:55:55 12° 272° (W) 21:57:39 435.000/436.395/437.385
ISS 23 May 21:54:41 21:57:26 25° 139° (SE) 22:00:12 437.550
Tancredo 1 23 May 21:54:48 21:57:38 34° 143° (SE) 22:00:28 437.200
UNISAT 6 23 May 21:55:22 21:57:46 14° 89° (E) 22:00:10 437.425
STRAND 1 23 May 22:03:41 22:07:30 22° 299° (WNW) 22:11:20 437.568
EO-88 23 May 22:06:31 22:10:11 83° 258° (WSW) 22:13:52 145.990 - 145.960
PCSat 23 May 22:13:32 22:18:04 26° 319° (NW) 22:22:38 145.827
ESTCUBE 1 23 May 22:23:24 22:26:24 18° 61° (ENE) 22:29:25 437.505/2401.250
SO-50 23 May 22:35:17 22:37:50 15° 110° (ESE) 22:40:23 436.795
FO-29 23 May 22:42:49 22:48:47 45° 99° (E) 22:55:27 435.910
DELFI C3 23 May 22:49:50 22:52:55 21° 267° (W) 22:56:01 145.870
TIGRISAT 23 May 22:59:37 23:04:06 55° 100° (E) 23:08:39 435.000
LO-87 23 May 23:00:40 23:04:10 57° 74° (ENE) 23:07:39 145.935 - 145.965
PRISM 23 May 23:01:55 23:06:02 78° 105° (ESE) 23:10:05 437.425
